Погода в Кленовском

Россия / Свердловская область     56°49′18″N   58°37′13″E
темп.,
°C
ветер,
м/с
пор.,
м/с
влажн.,
%
обл.,
%
осадки,
мм/ч
давл.,
гПа
погр.,
м
9 марта, вт
вт923:00−9юз5158594 0.7 1000844
02:00−10юз4119499 0.1 1002494
05:00−11ююз2597100 0.1 1002147
08:00−14ю1298100 0.0 100220
11:00−8зсз2391100 0.1 1004336
14:00−6з368396 0.0 1007779
17:00−6зсз358393 0.1 1008841
20:00−12з019778 0.1 101021
10 марта, ср
ср1023:00−13вюв019888 0.1 101121
02:00−15всв119994 0.0 101020
05:00−16св229797 0.1 100947
08:00−14св3896100 0.0 1007216
11:00−11св4993100 0.4 1006374
14:00−10св61092100 0.6 1004581
17:00−10ссв61193100 1.5 1004692
20:00−13ссв61293100 0.8 1005675
11 марта, чт
чт1123:00−15ссв51193100 1.3 1007597
02:00−17с51094100 0.3 1008502
05:00−19с4895100 0.4 1010397
08:00−24ссз259899 0.0 1013117
11:00−20зсз359389 0.0 1013295
14:00−16зсз47830 0.0 1013545
17:00−16зсз489142 0.1 1013733
20:00−18зсз3995100 0.3 1015684
12 марта, пт
пт1223:00−19юз2399100 0.6 101687
02:00−21зсз22100100 0.1 101767
05:00−21зсз2598100 0.1 1017158
08:00−19зюз2598100 0.1 1018201
11:00−12зсз4890100 0.2 1018664
14:00−11з5987100 0.1 1019774
17:00−9з51086100 0.2 1020894
20:00−12з41390100 0.0 1021626
13 марта, сб
сб1323:00−12з4139398 0.1 1023663
02:00−12з51293100 0.1 1024558
05:00−14з41195100 0.2 1026446
08:00−16зюз41196100 0.1 1028362
11:00−12зюз4791100 0.1 1030410
14:00−9з4784100 0.0 1030514
17:00−9з478599 0.0 1031520
20:00−12зюз389599 0.0 1031239